• In Russia
  • List of Countries
  • For 7 days
  • Water Temperature
  • Satellite Maps
  • Weather Map
  • Weather Widgets
  • user-avatar
    Login

    Hourly Weather Feldkirch

    Today, 23 April, Tuesday

    Time Temperature Precipitation Wind Pressure Humidity
    00:00 +11°C° 0 mm 3 mps 694 mmHg 63%
    01:00 +10°C° 0 mm 3 mps 694 mmHg 63%
    02:00 +10°C° 0 mm 3 mps 694 mmHg 65%
    03:00 +10°C° 0 mm 3 mps 694 mmHg 66%
    04:00 +10°C° 0 mm 3 mps 693 mmHg 67%
    05:00 +11°C° 0 mm 3 mps 693 mmHg 67%
    06:00 +11°C° 0 mm 3 mps 693 mmHg 68%
    07:00 +13°C° 0 mm 2 mps 693 mmHg 68%
    08:00 +14°C° 0 mm 2 mps 693 mmHg 62%
    09:00 +16°C° 0 mm 2 mps 693 mmHg 56%
    10:00 +18°C° 0 mm 2 mps 693 mmHg 51%
    11:00 +19°C° 0 mm 2 mps 693 mmHg 47%
    12:00 +20°C° 0 mm 2 mps 693 mmHg 44%
    13:00 +21°C° 0 mm 2 mps 693 mmHg 40%
    14:00 +21°C° 0 mm 2 mps 693 mmHg 42%
    15:00 +20°C° 0 mm 2 mps 693 mmHg 44%
    16:00 +20°C° 0 mm 2 mps 693 mmHg 46%
    17:00 +18°C° 0 mm 2 mps 693 mmHg 52%
    18:00 +17°C° 0 mm 2 mps 692 mmHg 58%
    19:00 +15°C° 0 mm 2 mps 692 mmHg 63%
    20:00 +14°C° 0 mm 2 mps 693 mmHg 64%
    21:00 +13°C° 0 mm 3 mps 693 mmHg 65%
    22:00 +12°C° 0 mm 3 mps 694 mmHg 66%
    23:00 +12°C° 0 mm 3 mps 694 mmHg 67%

    Tomorrow, 24 April, Wednesday

    Time Temperature Precipitation Wind Pressure Humidity
    00:00 +12°C° 0 mm 3 mps 694 mmHg 68%
    01:00 +12°C° 0 mm 3 mps 695 mmHg 69%
    02:00 +11°C° 0 mm 3 mps 695 mmHg 69%
    03:00 +11°C° 0 mm 3 mps 695 mmHg 70%
    04:00 +10°C° 0 mm 3 mps 695 mmHg 71%
    05:00 +11°C° 0 mm 3 mps 696 mmHg 69%
    06:00 +12°C° 0 mm 3 mps 696 mmHg 67%
    07:00 +13°C° 0 mm 3 mps 697 mmHg 65%
    08:00 +16°C° 0 mm 3 mps 697 mmHg 57%
    09:00 +18°C° 0 mm 4 mps 697 mmHg 50%
    10:00 +20°C° 0 mm 4 mps 698 mmHg 43%
    11:00 +21°C° 0 mm 4 mps 698 mmHg 41%
    12:00 +21°C° 0 mm 4 mps 698 mmHg 40%
    13:00 +21°C° 0 mm 5 mps 698 mmHg 38%
    14:00 +22°C° 0 mm 5 mps 698 mmHg 38%
    15:00 +22°C° 0 mm 5 mps 697 mmHg 38%
    16:00 +22°C° 0 mm 5 mps 697 mmHg 37%
    17:00 +20°C° 0 mm 4 mps 698 mmHg 44%
    18:00 +18°C° 0 mm 4 mps 698 mmHg 50%
    19:00 +15°C° 0 mm 4 mps 698 mmHg 57%
    20:00 +14°C° 0 mm 3 mps 699 mmHg 61%
    21:00 +12°C° 0 mm 3 mps 700 mmHg 66%
    22:00 +12°C° 0 mm 2 mps 701 mmHg 71%
    23:00 +11°C° 0 mm 3 mps 701 mmHg 71%

    Day after tomorrow, 25 April, Thursday

    Time Temperature Precipitation Wind Pressure Humidity
    00:00 +10°C° 0 mm 3 mps 701 mmHg 72%
    01:00 +10°C° 0 mm 3 mps 702 mmHg 72%
    02:00 +10°C° 0 mm 3 mps 702 mmHg 70%
    03:00 +10°C° 0 mm 4 mps 702 mmHg 67%
    04:00 +10°C° 0 mm 4 mps 702 mmHg 64%
    05:00 +11°C° 0 mm 4 mps 702 mmHg 62%
    06:00 +12°C° 0 mm 4 mps 702 mmHg 60%
    07:00 +12°C° 0 mm 4 mps 701 mmHg 58%
    08:00 +15°C° 0 mm 4 mps 702 mmHg 52%
    09:00 +18°C° 0 mm 4 mps 702 mmHg 47%
    10:00 +20°C° 0 mm 4 mps 702 mmHg 41%
    11:00 +21°C° 0 mm 4 mps 702 mmHg 39%
    12:00 +22°C° 0 mm 4 mps 702 mmHg 38%
    13:00 +22°C° 0 mm 4 mps 702 mmHg 36%
    14:00 +22°C° 0 mm 5 mps 701 mmHg 37%
    15:00 +22°C° 0 mm 5 mps 701 mmHg 38%
    16:00 +21°C° 0 mm 5 mps 701 mmHg 40%
    17:00 +20°C° 0 mm 5 mps 700 mmHg 46%
    18:00 +18°C° 0 mm 4 mps 700 mmHg 52%
    19:00 +16°C° 0 mm 3 mps 700 mmHg 59%
    20:00 +16°C° 0 mm 3 mps 700 mmHg 61%
    21:00 +14°C° 0 mm 3 mps 701 mmHg 64%
    22:00 +13°C° 0 mm 3 mps 701 mmHg 66%
    23:00 +12°C° 0 mm 3 mps 701 mmHg 70%

    26 April, Friday

    Time Temperature Precipitation Wind Pressure Humidity
    00:00 +12°C° 0 mm 2 mps 701 mmHg 74%
    01:00 +10°C° 0 mm 2 mps 701 mmHg 78%
    02:00 +10°C° 0 mm 2 mps 701 mmHg 80%
    03:00 +9°C° 0 mm 2 mps 701 mmHg 81%
    04:00 +10°C° 0 mm 1 mps 701 mmHg 83%
    05:00 +10°C° 0 mm 1 mps 701 mmHg 83%
    06:00 +11°C° 0 mm 1 mps 702 mmHg 82%
    07:00 +11°C° 0 mm 1 mps 702 mmHg 81%
    08:00 +9°C° 0.8 mm 2 mps 702 mmHg 84%
    09:00 +9°C° 0.8 mm 3 mps 702 mmHg 87%
    10:00 +8°C° 0.8 mm 3 mps 702 mmHg 90%
    11:00 +7°C° 2.6 mm 3 mps 703 mmHg 91%
    12:00 +6°C° 2.6 mm 2 mps 703 mmHg 92%
    13:00 +6°C° 2.6 mm 2 mps 703 mmHg 94%
    14:00 +6°C° 1.1 mm 2 mps 703 mmHg 94%
    15:00 +6°C° 1.1 mm 2 mps 704 mmHg 93%
    16:00 +7°C° 1.1 mm 1 mps 704 mmHg 93%
    17:00 +7°C° 0.1 mm 1 mps 704 mmHg 93%
    18:00 +6°C° 0.1 mm 2 mps 704 mmHg 92%
    19:00 +6°C° 0.1 mm 2 mps 704 mmHg 92%
    20:00 +5°C° 0 mm 2 mps 705 mmHg 90%
    21:00 +5°C° 0 mm 2 mps 705 mmHg 89%
    22:00 +4°C° 0 mm 2 mps 705 mmHg 88%
    23:00 +6°C° 0.1 mm 1 mps 705 mmHg 87%

    27 April, Saturday

    Time Temperature Precipitation Wind Pressure Humidity
    00:00 +6°C° 0.1 mm 1 mps 705 mmHg 87%
    01:00 +6°C° 0.1 mm 1 mps 706 mmHg 86%
    02:00 +6°C° 0.2 mm 1 mps 706 mmHg 88%
    03:00 +6°C° 0.2 mm 1 mps 706 mmHg 89%
    04:00 +6°C° 0.2 mm 1 mps 706 mmHg 90%
    05:00 +7°C° 0.6 mm 1 mps 706 mmHg 91%
    06:00 +7°C° 0.6 mm 1 mps 706 mmHg 93%
    07:00 +7°C° 0.6 mm 1 mps 706 mmHg 94%
    08:00 +6°C° 0.8 mm 2 mps 707 mmHg 94%
    09:00 +7°C° 0.8 mm 2 mps 707 mmHg 95%
    10:00 +7°C° 0.8 mm 2 mps 707 mmHg 96%
    11:00 +7°C° 0.5 mm 2 mps 707 mmHg 95%
    12:00 +8°C° 0.5 mm 2 mps 707 mmHg 94%
    13:00 +8°C° 0.5 mm 2 mps 708 mmHg 94%
    14:00 +8°C° 0.4 mm 2 mps 708 mmHg 93%
    15:00 +8°C° 0.4 mm 2 mps 708 mmHg 91%
    16:00 +9°C° 0.4 mm 2 mps 708 mmHg 90%
    17:00 +8°C° 0.3 mm 2 mps 709 mmHg 91%
    18:00 +8°C° 0.3 mm 1 mps 709 mmHg 92%
    19:00 +8°C° 0.3 mm 1 mps 710 mmHg 93%
    20:00 +7°C° 0.1 mm 1 mps 710 mmHg 93%
    21:00 +7°C° 0.1 mm 1 mps 711 mmHg 93%
    22:00 +6°C° 0.1 mm 1 mps 712 mmHg 93%
    23:00 +6°C° 0 mm 1 mps 712 mmHg 94%

    28 April, Sunday

    Time Temperature Precipitation Wind Pressure Humidity
    00:00 +5°C° 0 mm 1 mps 712 mmHg 94%
    01:00 +4°C° 0 mm 1 mps 712 mmHg 94%
    02:00 +3°C° 0 mm 2 mps 712 mmHg 94%
    03:00 +3°C° 0 mm 2 mps 712 mmHg 93%
    04:00 +3°C° 0 mm 2 mps 711 mmHg 93%
    05:00 +3°C° 0 mm 2 mps 711 mmHg 91%
    06:00 +4°C° 0 mm 2 mps 711 mmHg 89%
    07:00 +5°C° 0 mm 2 mps 711 mmHg 87%
    08:00 +8°C° 0 mm 1 mps 711 mmHg 81%
    09:00 +11°C° 0 mm 1 mps 710 mmHg 74%
    10:00 +13°C° 0 mm 1 mps 710 mmHg 67%
    11:00 +14°C° 0 mm 1 mps 710 mmHg 66%
    12:00 +14°C° 0 mm 1 mps 710 mmHg 65%
    13:00 +15°C° 0 mm 1 mps 709 mmHg 64%
    14:00 +15°C° 0.1 mm 2 mps 709 mmHg 66%
    15:00 +14°C° 0.1 mm 2 mps 708 mmHg 69%
    16:00 +14°C° 0.1 mm 2 mps 708 mmHg 71%
    17:00 +13°C° 0.3 mm 1 mps 708 mmHg 78%
    18:00 +12°C° 0.3 mm 1 mps 708 mmHg 85%
    19:00 +11°C° 0.3 mm 1 mps 708 mmHg 91%
    20:00 +10°C° 0.3 mm 1 mps 708 mmHg 93%
    21:00 +9°C° 0.3 mm 1 mps 708 mmHg 94%
    22:00 +9°C° 0.3 mm 1 mps 708 mmHg 96%
    23:00 +9°C° 0.2 mm 1 mps 708 mmHg 95%
    Show more